Keahole Point, HI

10:57 PM HST on May 28, 2017 (GMT -1000)
Kona International At Keahole

Weather History for PHKO - April, 2012

Change the Weather History Date:

Sunday, April 1, 2012

  Actual Average Record
Temperature  
Mean Temperature 74 °F -  
Max Temperature 81 °F 80 °F 89 °F (1986)
Min Temperature 66 °F 69 °F 23 °F (2003)
Cooling Degree Days 8    
Growing Degree Days 24 (Base 50)    
Moisture  
Dew Point 62 °F    
Average Humidity 65    
Maximum Humidity 76    
Minimum Humidity 50    
Precipitation  
Precipitation 0.00 in - - ()
Sea Level Pressure  
Sea Level Pressure 30.09 in    
Wind  
Wind Speed 5 mph (WNW)    
Max Wind Speed 10 mph    
Max Gust Speed -    
Visibility 10 miles    
Events      
Averages and records for this station are not official NWS values.
T = Trace of Precipitation, MM = Missing Value Source: NWS Daily Summary

Daily Weather History Graph

Daily Weather History Graph

Search for Another Location

Airport or City:

Trip Planner

Search our weather history database for the weather conditions in past years. The results will help you decide how hot, cold, wet, or windy it might be!

Date:

Astronomy

Apr. 01, 2012 Rise Set
Actual Time 6:17 AM HST 6:38 PM HST
Civil Twilight 5:55 AM HST 7:00 PM HST
Nautical Twilight 5:29 AM HST 7:26 PM HST
Astronomical Twilight 5:03 AM HST 7:52 PM HST
Moon 2:00 PM HST (4/1) 2:18 AM HST (4/1)
Length of Visible Light 13h 05m
Length of Day
12h 21m
Waxing Gibbous, 71% of the Moon is Illuminated
Apr 1
Waxing Gibbous
Apr 6
Full
Apr 13
Last Quarter
Apr 20
New
Apr 28
First Quarter

Hourly Weather History & Observations

Time (HST) Temp. Heat Index Dew Point Humidity Pressure Visibility Wind Dir Wind Speed Gust Speed Precip Events Conditions
12:53 AM 71.1 °F - 57.9 °F 63% 30.10 in 10.0 mi ENE 3.5 mph - N/A   Clear
1:53 AM 69.1 °F - 57.9 °F 68% 30.09 in 10.0 mi East 3.5 mph - N/A   Clear
2:53 AM 69.1 °F - 57.9 °F 68% 30.07 in 10.0 mi ENE 4.6 mph - N/A   Clear
3:53 AM 68.0 °F - 57.0 °F 68% 30.07 in 10.0 mi NE 4.6 mph - N/A   Scattered Clouds
4:53 AM 69.1 °F - 55.9 °F 63% 30.08 in 10.0 mi Calm Calm - N/A   Clear
5:53 AM 68.0 °F - 57.0 °F 68% 30.09 in 10.0 mi Calm Calm - N/A   Clear
6:53 AM 66.9 °F - 57.0 °F 70% 30.11 in 10.0 mi ENE 3.5 mph - N/A   Clear
7:53 AM 75.0 °F - 57.0 °F 53% 30.13 in 10.0 mi Calm Calm - N/A   Clear
8:53 AM 78.1 °F - 57.9 °F 50% 30.14 in 10.0 mi NW 6.9 mph - N/A   Clear
9:53 AM 80.1 °F 81.1 °F 61.0 °F 52% 30.14 in 10.0 mi WNW 6.9 mph - N/A   Clear
10:53 AM 80.1 °F 81.2 °F 62.1 °F 54% 30.13 in 10.0 mi West 9.2 mph - N/A   Clear
11:53 AM 79.0 °F - 64.0 °F 60% 30.12 in 10.0 mi West 10.4 mph - N/A   Clear
12:53 PM 80.1 °F 81.9 °F 64.9 °F 60% 30.10 in 10.0 mi West 10.4 mph - N/A   Clear
1:53 PM 81.0 °F 82.7 °F 64.9 °F 58% 30.07 in 10.0 mi WSW 8.1 mph - N/A   Clear
2:53 PM 79.0 °F - 66.9 °F 66% 30.05 in 10.0 mi WSW 9.2 mph - N/A   Clear
3:53 PM 80.1 °F 82.1 °F 66.0 °F 62% 30.04 in 10.0 mi West 9.2 mph - N/A   Partly Cloudy
4:53 PM 78.1 °F - 64.9 °F 64% 30.04 in 10.0 mi West 6.9 mph - N/A   Partly Cloudy
5:53 PM 77.0 °F - 66.0 °F 69% 30.05 in 10.0 mi WNW 5.8 mph - N/A   Mostly Cloudy
6:53 PM 75.9 °F - 64.9 °F 69% 30.06 in 10.0 mi WNW 8.1 mph - N/A   Mostly Cloudy
7:53 PM 75.9 °F - 66.0 °F 71% 30.07 in 10.0 mi WNW 9.2 mph - N/A   Overcast
8:43 PM 75.2 °F - 66.2 °F 73% 30.07 in 10.0 mi WNW 8.1 mph - N/A   Overcast
8:53 PM 75.0 °F - 66.0 °F 73% 30.08 in 10.0 mi WNW 6.9 mph - N/A   Overcast
9:53 PM 75.0 °F - 66.0 °F 73% 30.09 in 10.0 mi West 9.2 mph - N/A   Overcast
10:08 PM 75.2 °F - 66.2 °F 73% 30.09 in 10.0 mi West 8.1 mph - N/A   Overcast
10:53 PM 75.0 °F - 66.0 °F 73% 30.10 in 10.0 mi WSW 9.2 mph - N/A   Overcast
11:53 PM 75.0 °F - 66.9 °F 76% 30.09 in 10.0 mi WSW 6.9 mph - N/A   Overcast